When you browse on this site, cookies collect data to enhance your experience and personalize the content and advertising you see.
Visit our Privacy Policy to learn more. By continuing to use the site, you agree to this use of cookies and data.
  • In Sweden
  • List of Countries
  • For 7 days
  • Water Temperature
  • Weather Map
  • Weather Widgets
  • user-avatar
    Login

    Hourly Weather Kenitra

    Today, 20 February, Thursday

    Time Temperature Precipitation Wind Pressure Humidity
    00:00 +16°C° 0 mm 6 mps 762 mmHg 66%
    01:00 +15°C° 0 mm 6 mps 762 mmHg 69%
    02:00 +15°C° 0 mm 5 mps 762 mmHg 71%
    03:00 +14°C° 0 mm 5 mps 761 mmHg 74%
    04:00 +14°C° 0 mm 4 mps 761 mmHg 76%
    05:00 +13°C° 0 mm 3 mps 761 mmHg 79%
    06:00 +13°C° 0 mm 2 mps 761 mmHg 81%
    07:00 +14°C° 0 mm 2 mps 762 mmHg 78%
    08:00 +15°C° 0 mm 2 mps 762 mmHg 75%
    09:00 +16°C° 0 mm 2 mps 762 mmHg 71%
    10:00 +18°C° 0 mm 2 mps 762 mmHg 66%
    11:00 +20°C° 0 mm 2 mps 762 mmHg 62%
    12:00 +23°C° 0 mm 1 mps 762 mmHg 57%
    13:00 +23°C° 0 mm 2 mps 761 mmHg 57%
    14:00 +23°C° 0 mm 2 mps 761 mmHg 57%
    15:00 +23°C° 0 mm 2 mps 760 mmHg 57%
    16:00 +21°C° 0 mm 2 mps 761 mmHg 65%
    17:00 +19°C° 0 mm 2 mps 761 mmHg 72%
    18:00 +17°C° 0 mm 2 mps 761 mmHg 80%
    19:00 +17°C° 0.1 mm 2 mps 762 mmHg 82%
    20:00 +16°C° 0.1 mm 1 mps 762 mmHg 84%
    21:00 +15°C° 0.1 mm 1 mps 763 mmHg 86%
    22:00 +15°C° 0 mm 1 mps 763 mmHg 85%
    23:00 +15°C° 0 mm 1 mps 763 mmHg 84%

    Tomorrow, 21 February, Friday

    Time Temperature Precipitation Wind Pressure Humidity
    00:00 +15°C° 0 mm 1 mps 763 mmHg 84%
    01:00 +14°C° 0 mm 1 mps 762 mmHg 85%
    02:00 +14°C° 0 mm 2 mps 762 mmHg 86%
    03:00 +13°C° 0 mm 3 mps 762 mmHg 86%
    04:00 +12°C° 0 mm 3 mps 762 mmHg 86%
    05:00 +12°C° 0 mm 3 mps 762 mmHg 85%
    06:00 +12°C° 0 mm 3 mps 762 mmHg 85%
    13:00 +25°C° 0 mm 5 mps 763 mmHg 52%
    14:00 +24°C° 0 mm 6 mps 762 mmHg 49%
    15:00 +26°C° 0 mm 6 mps 762 mmHg 47%
    16:00 +23°C° 0 mm 6 mps 762 mmHg 50%
    17:00 +22°C° 0 mm 6 mps 762 mmHg 53%
    18:00 +20°C° 0 mm 5 mps 762 mmHg 56%
    19:00 +19°C° 0 mm 6 mps 763 mmHg 58%
    20:00 +17°C° 0 mm 6 mps 763 mmHg 59%
    21:00 +16°C° 0 mm 6 mps 764 mmHg 61%
    22:00 +16°C° 0 mm 6 mps 764 mmHg 61%
    23:00 +15°C° 0 mm 6 mps 764 mmHg 62%

    Day after tomorrow, 22 February, Saturday

    Time Temperature Precipitation Wind Pressure Humidity
    00:00 +14°C° 0 mm 6 mps 764 mmHg 62%
    01:00 +14°C° 0 mm 6 mps 764 mmHg 64%
    02:00 +13°C° 0 mm 6 mps 764 mmHg 67%
    03:00 +13°C° 0 mm 5 mps 764 mmHg 69%
    04:00 +13°C° 0 mm 5 mps 764 mmHg 69%
    05:00 +13°C° 0 mm 5 mps 764 mmHg 69%
    06:00 +11°C° 0 mm 6 mps 764 mmHg 69%
    07:00 +14°C° 0 mm 6 mps 764 mmHg 67%
    08:00 +15°C° 0 mm 6 mps 765 mmHg 65%
    09:00 +16°C° 0 mm 6 mps 765 mmHg 63%
    10:00 +19°C° 0 mm 5 mps 765 mmHg 56%
    11:00 +21°C° 0 mm 5 mps 765 mmHg 49%
    12:00 +23°C° 0 mm 4 mps 765 mmHg 42%
    13:00 +25°C° 0 mm 4 mps 765 mmHg 43%
    14:00 +25°C° 0 mm 5 mps 764 mmHg 44%
    15:00 +26°C° 0 mm 5 mps 764 mmHg 45%
    16:00 +23°C° 0 mm 5 mps 764 mmHg 50%
    17:00 +22°C° 0 mm 4 mps 764 mmHg 55%
    18:00 +20°C° 0 mm 4 mps 764 mmHg 60%
    19:00 +19°C° 0 mm 4 mps 764 mmHg 59%
    20:00 +18°C° 0 mm 4 mps 765 mmHg 58%
    21:00 +17°C° 0 mm 4 mps 765 mmHg 58%
    22:00 +15°C° 0 mm 4 mps 765 mmHg 59%
    23:00 +14°C° 0 mm 4 mps 765 mmHg 60%

    23 February, Sunday

    Time Temperature Precipitation Wind Pressure Humidity
    00:00 +14°C° 0 mm 4 mps 765 mmHg 61%
    01:00 +13°C° 0 mm 4 mps 765 mmHg 59%
    02:00 +13°C° 0 mm 3 mps 765 mmHg 58%
    03:00 +13°C° 0 mm 3 mps 765 mmHg 56%
    04:00 +13°C° 0 mm 3 mps 765 mmHg 56%
    05:00 +12°C° 0 mm 3 mps 765 mmHg 56%
    06:00 +12°C° 0 mm 3 mps 765 mmHg 55%
    07:00 +14°C° 0 mm 3 mps 765 mmHg 53%
    08:00 +16°C° 0 mm 2 mps 766 mmHg 51%
    09:00 +18°C° 0 mm 2 mps 766 mmHg 49%
    10:00 +20°C° 0 mm 2 mps 766 mmHg 45%
    11:00 +23°C° 0 mm 1 mps 766 mmHg 41%
    12:00 +25°C° 0 mm 1 mps 766 mmHg 37%
    13:00 +26°C° 0 mm 1 mps 766 mmHg 38%
    14:00 +26°C° 0 mm 2 mps 765 mmHg 38%
    15:00 +27°C° 0 mm 2 mps 765 mmHg 39%
    16:00 +25°C° 0 mm 2 mps 765 mmHg 46%
    17:00 +22°C° 0 mm 3 mps 765 mmHg 53%
    18:00 +21°C° 0 mm 3 mps 765 mmHg 60%
    19:00 +19°C° 0 mm 2 mps 765 mmHg 63%
    20:00 +19°C° 0 mm 1 mps 766 mmHg 67%
    21:00 +16°C° 0 mm 1 mps 766 mmHg 70%
    22:00 +16°C° 0 mm 1 mps 766 mmHg 70%
    23:00 +16°C° 0 mm 1 mps 766 mmHg 69%

    24 February, Monday

    Time Temperature Precipitation Wind Pressure Humidity
    00:00 +15°C° 0 mm 1 mps 766 mmHg 69%
    01:00 +15°C° 0 mm 1 mps 766 mmHg 69%
    02:00 +14°C° 0 mm 1 mps 766 mmHg 69%
    03:00 +14°C° 0 mm 1 mps 766 mmHg 69%
    04:00 +14°C° 0 mm 1 mps 766 mmHg 68%
    05:00 +14°C° 0 mm 2 mps 766 mmHg 66%
    06:00 +13°C° 0 mm 2 mps 766 mmHg 65%
    07:00 +15°C° 0 mm 2 mps 766 mmHg 60%
    08:00 +17°C° 0 mm 2 mps 766 mmHg 56%
    09:00 +18°C° 0 mm 2 mps 766 mmHg 51%
    10:00 +21°C° 0 mm 2 mps 766 mmHg 47%
    11:00 +24°C° 0 mm 2 mps 766 mmHg 43%
    12:00 +26°C° 0 mm 2 mps 766 mmHg 39%
    13:00 +26°C° 0 mm 3 mps 766 mmHg 40%
    14:00 +26°C° 0 mm 3 mps 765 mmHg 41%
    15:00 +27°C° 0 mm 4 mps 765 mmHg 42%
    16:00 +24°C° 0 mm 3 mps 765 mmHg 52%
    17:00 +21°C° 0 mm 3 mps 765 mmHg 61%
    18:00 +18°C° 0 mm 3 mps 765 mmHg 71%
    19:00 +17°C° 0 mm 2 mps 765 mmHg 73%
    20:00 +16°C° 0 mm 1 mps 766 mmHg 75%
    21:00 +15°C° 0 mm 1 mps 766 mmHg 77%
    22:00 +15°C° 0 mm 1 mps 766 mmHg 76%
    23:00 +14°C° 0 mm 2 mps 767 mmHg 74%

    25 February, Tuesday

    Time Temperature Precipitation Wind Pressure Humidity
    00:00 +14°C° 0 mm 2 mps 767 mmHg 73%
    01:00 +14°C° 0 mm 2 mps 767 mmHg 77%
    02:00 +13°C° 0 mm 3 mps 767 mmHg 80%
    03:00 +13°C° 0 mm 3 mps 767 mmHg 83%
    04:00 +13°C° 0 mm 3 mps 767 mmHg 85%
    05:00 +14°C° 0 mm 2 mps 767 mmHg 86%
    06:00 +13°C° 0 mm 2 mps 767 mmHg 88%
    07:00 +14°C° 0 mm 2 mps 767 mmHg 83%
    08:00 +16°C° 0 mm 2 mps 767 mmHg 79%
    09:00 +17°C° 0 mm 2 mps 768 mmHg 75%
    10:00 +18°C° 0 mm 2 mps 767 mmHg 67%
    11:00 +20°C° 0 mm 2 mps 767 mmHg 60%
    12:00 +21°C° 0 mm 2 mps 767 mmHg 52%
    13:00 +21°C° 0 mm 2 mps 767 mmHg 52%
    14:00 +22°C° 0 mm 3 mps 766 mmHg 51%
    15:00 +22°C° 0 mm 4 mps 766 mmHg 51%
    16:00 +20°C° 0 mm 3 mps 766 mmHg 59%
    17:00 +18°C° 0 mm 3 mps 766 mmHg 66%
    18:00 +17°C° 0 mm 3 mps 766 mmHg 74%
    19:00 +15°C° 0 mm 2 mps 766 mmHg 78%
    20:00 +14°C° 0 mm 2 mps 766 mmHg 82%
    21:00 +13°C° 0 mm 1 mps 767 mmHg 86%
    22:00 +13°C° 0 mm 1 mps 767 mmHg 86%
    23:00 +12°C° 0 mm 1 mps 766 mmHg 86%
    Show more